Time,TemperatureF,DewpointF,PressureIn,WindDirection,WindDirectionDegrees,WindSpeedMPH,WindSpeedGustMPH,Humidity,HourlyPrecipIn,Conditions,Clouds,dailyrainin,SoftwareType,DateUTC
2013-04-28 00:03:00,57.2,45.5,29.77,SE,135,8.9,-999.0,65,-99.99,,,0.00,Acu-Link.com,2013-04-28 05:03:00,
2013-04-28 00:18:00,56.7,45.9,29.78,SSE,157,6.3,-999.0,67,-99.99,,,0.00,Acu-Link.com,2013-04-28 05:18:00,
2013-04-28 00:33:00,56.7,45.9,29.77,South,180,9.9,-999.0,67,-99.99,,,0.00,Acu-Link.com,2013-04-28 05:33:00,
2013-04-28 00:48:00,56.3,45.9,29.77,South,180,9.4,-999.0,68,-99.99,,,0.00,Acu-Link.com,2013-04-28 05:48:00,
2013-04-28 01:03:00,56.1,46.1,29.77,SSE,157,9.4,-999.0,69,-99.99,,,0.00,Acu-Link.com,2013-04-28 06:03:00,
2013-04-28 01:18:00,55.4,45.8,29.76,South,180,9.9,-999.0,70,-99.99,,,0.00,Acu-Link.com,2013-04-28 06:18:00,
2013-04-28 01:33:00,55.4,45.8,29.76,South,180,7.8,-999.0,70,-99.99,,,0.00,Acu-Link.com,2013-04-28 06:33:00,
2013-04-28 01:49:00,55.0,45.8,29.75,SSE,157,6.3,-999.0,71,-99.99,,,0.00,Acu-Link.com,2013-04-28 06:49:00,
2013-04-28 02:04:00,55.2,46.0,29.75,South,180,8.3,-999.0,71,-99.99,,,0.00,Acu-Link.com,2013-04-28 07:04:00,
2013-04-28 02:19:00,55.0,46.1,29.74,South,180,10.4,-999.0,72,-99.99,,,0.00,Acu-Link.com,2013-04-28 07:19:00,
2013-04-28 02:34:00,54.3,45.8,29.74,South,180,7.8,-999.0,73,-99.99,,,0.00,Acu-Link.com,2013-04-28 07:34:00,
2013-04-28 02:49:00,54.1,45.6,29.73,SSE,157,9.4,-999.0,73,-99.99,,,0.00,Acu-Link.com,2013-04-28 07:49:00,
2013-04-28 03:04:00,54.0,45.9,29.73,South,180,6.8,-999.0,74,-99.99,,,0.00,Acu-Link.com,2013-04-28 08:04:00,
2013-04-28 03:19:00,53.8,45.7,29.72,SSE,157,5.8,-999.0,74,-99.99,,,0.00,Acu-Link.com,2013-04-28 08:19:00,
2013-04-28 03:34:00,53.6,45.5,29.72,SSE,157,8.3,-999.0,74,-99.99,,,0.00,Acu-Link.com,2013-04-28 08:34:00,
2013-04-28 03:49:00,53.2,45.5,29.71,South,180,10.4,-999.0,75,-99.99,,,0.00,Acu-Link.com,2013-04-28 08:49:00,
2013-04-28 04:04:00,52.9,45.5,29.71,SSE,157,9.4,-999.0,76,-99.99,,,0.00,Acu-Link.com,2013-04-28 09:04:00,
2013-04-28 04:20:00,52.5,45.2,29.71,SSE,157,8.3,-999.0,76,-99.99,,,0.00,Acu-Link.com,2013-04-28 09:20:00,
2013-04-28 04:35:00,52.3,45.3,29.71,SSE,157,9.4,-999.0,77,-99.99,,,0.00,Acu-Link.com,2013-04-28 09:35:00,
2013-04-28 04:50:00,52.2,45.2,29.70,SSE,157,6.3,-999.0,77,-99.99,,,0.00,Acu-Link.com,2013-04-28 09:50:00,
2013-04-28 05:05:00,51.8,44.8,29.69,South,180,8.3,-999.0,77,-99.99,,,0.00,Acu-Link.com,2013-04-28 10:05:00,
2013-04-28 05:20:00,51.4,44.8,29.69,South,180,7.3,-999.0,78,-99.99,,,0.00,Acu-Link.com,2013-04-28 10:20:00,
2013-04-28 05:35:00,51.3,44.7,29.68,SSE,157,9.4,-999.0,78,-99.99,,,0.00,Acu-Link.com,2013-04-28 10:35:00,
2013-04-28 05:50:00,51.1,44.5,29.68,South,180,9.9,-999.0,78,-99.99,,,0.00,Acu-Link.com,2013-04-28 10:50:00,
2013-04-28 06:05:00,50.5,44.2,29.68,South,180,7.3,-999.0,79,-99.99,,,0.00,Acu-Link.com,2013-04-28 11:05:00,
2013-04-28 06:20:00,50.9,44.6,29.68,South,180,9.4,-999.0,79,-99.99,,,0.00,Acu-Link.com,2013-04-28 11:20:00,
2013-04-28 06:35:00,50.5,44.2,29.67,SW,225,7.3,-999.0,79,-99.99,,,0.00,Acu-Link.com,2013-04-28 11:35:00,
2013-04-28 06:51:00,50.5,44.6,29.68,South,180,6.3,-999.0,80,-99.99,,,0.00,Acu-Link.com,2013-04-28 11:51:00,
2013-04-28 07:06:00,51.3,45.0,29.68,SSE,157,7.8,-999.0,79,-99.99,,,0.00,Acu-Link.com,2013-04-28 12:06:00,
2013-04-28 07:21:00,52.3,45.3,29.68,South,180,8.9,-999.0,77,-99.99,,,0.00,Acu-Link.com,2013-04-28 12:21:00,
2013-04-28 07:36:00,53.6,45.9,29.67,SSE,157,9.9,-999.0,75,-99.99,,,0.00,Acu-Link.com,2013-04-28 12:36:00,
2013-04-28 07:51:00,54.9,46.4,29.68,SSE,157,8.9,-999.0,73,-99.99,,,0.00,Acu-Link.com,2013-04-28 12:51:00,
2013-04-28 08:07:00,55.9,46.6,29.68,South,180,8.3,-999.0,71,-99.99,,,0.00,Acu-Link.com,2013-04-28 13:07:00,
2013-04-28 08:22:00,57.7,46.8,29.67,South,180,9.4,-999.0,67,-99.99,,,0.00,Acu-Link.com,2013-04-28 13:22:00,
2013-04-28 08:37:00,59.2,47.0,29.67,South,180,6.8,-999.0,64,-99.99,,,0.00,Acu-Link.com,2013-04-28 13:37:00,
2013-04-28 08:52:00,60.1,48.3,29.67,South,180,11.9,-999.0,65,-99.99,,,0.00,Acu-Link.com,2013-04-28 13:52:00,
2013-04-28 09:07:00,60.6,48.8,29.66,SSE,157,11.9,-999.0,65,-99.99,,,0.00,Acu-Link.com,2013-04-28 14:07:00,
2013-04-28 09:22:00,61.7,49.0,29.66,South,180,12.5,-999.0,63,-99.99,,,0.00,Acu-Link.com,2013-04-28 14:22:00,
2013-04-28 09:37:00,62.1,48.5,29.66,South,180,14.0,-999.0,61,-99.99,,,0.00,Acu-Link.com,2013-04-28 14:37:00,
2013-04-28 09:52:00,62.6,49.0,29.65,South,180,9.9,-999.0,61,-99.99,,,0.00,Acu-Link.com,2013-04-28 14:52:00,
2013-04-28 10:08:00,63.9,49.3,29.65,SSW,202,11.4,-999.0,59,-99.99,,,0.00,Acu-Link.com,2013-04-28 15:08:00,
2013-04-28 10:23:00,65.3,49.7,29.65,South,180,9.9,-999.0,57,-99.99,,,0.00,Acu-Link.com,2013-04-28 15:23:00,
2013-04-28 10:38:00,66.0,49.8,29.64,SSW,202,8.9,-999.0,56,-99.99,,,0.00,Acu-Link.com,2013-04-28 15:38:00,
2013-04-28 10:53:00,67.1,50.4,29.64,SSE,157,6.8,-999.0,55,-99.99,,,0.00,Acu-Link.com,2013-04-28 15:53:00,
2013-04-28 11:08:00,68.5,50.2,29.65,SE,135,8.9,-999.0,52,-99.99,,,0.00,Acu-Link.com,2013-04-28 16:08:00,
2013-04-28 11:23:00,69.8,49.8,29.63,SSW,202,8.9,-999.0,49,-99.99,,,0.00,Acu-Link.com,2013-04-28 16:23:00,
2013-04-28 11:39:00,71.6,50.3,29.63,SSE,157,11.4,-999.0,47,-99.99,,,0.00,Acu-Link.com,2013-04-28 16:39:00,
2013-04-28 11:54:00,72.9,49.7,29.62,South,180,8.3,-999.0,44,-99.99,,,0.00,Acu-Link.com,2013-04-28 16:54:00,
2013-04-28 12:09:00,74.1,50.2,29.62,SSE,157,6.3,-999.0,43,-99.99,,,0.00,Acu-Link.com,2013-04-28 17:09:00,
2013-04-28 12:24:00,74.8,50.2,29.61,SSE,157,10.4,-999.0,42,-99.99,,,0.00,Acu-Link.com,2013-04-28 17:24:00,
2013-04-28 12:39:00,75.9,49.8,29.61,SW,225,8.3,-999.0,40,-99.99,,,0.00,Acu-Link.com,2013-04-28 17:39:00,
2013-04-28 12:54:00,77.0,50.1,29.61,SSE,157,10.9,-999.0,39,-99.99,,,0.00,Acu-Link.com,2013-04-28 17:54:00,
2013-04-28 13:09:00,77.7,50.1,29.60,South,180,11.4,-999.0,38,-99.99,,,0.00,Acu-Link.com,2013-04-28 18:09:00,
2013-04-28 13:24:00,79.5,50.2,29.60,SSE,157,8.3,-999.0,36,-99.99,,,0.00,Acu-Link.com,2013-04-28 18:24:00,
2013-04-28 13:39:00,79.3,50.0,29.59,SSE,157,6.3,-999.0,36,-99.99,,,0.00,Acu-Link.com,2013-04-28 18:39:00,
2013-04-28 13:54:00,81.3,48.6,29.59,SSW,202,12.5,-999.0,32,-99.99,,,0.00,Acu-Link.com,2013-04-28 18:54:00,
2013-04-28 14:09:00,82.4,48.7,29.58,SSE,157,12.5,-999.0,31,-99.99,,,0.00,Acu-Link.com,2013-04-28 19:09:00,
2013-04-28 14:24:00,83.5,46.9,29.57,SSE,157,14.5,-999.0,28,-99.99,,,0.00,Acu-Link.com,2013-04-28 19:24:00,
2013-04-28 14:39:00,84.7,46.0,29.57,SSW,202,9.4,-999.0,26,-99.99,,,0.00,Acu-Link.com,2013-04-28 19:39:00,
2013-04-28 14:54:00,84.0,45.4,29.57,SSE,157,5.3,-999.0,26,-99.99,,,0.00,Acu-Link.com,2013-04-28 19:54:00,
2013-04-28 15:09:00,84.7,45.0,29.57,SSW,202,15.0,-999.0,25,-99.99,,,0.00,Acu-Link.com,2013-04-28 20:09:00,
2013-04-28 15:24:00,86.0,45.0,29.56,SSE,157,8.9,-999.0,24,-99.99,,,0.00,Acu-Link.com,2013-04-28 20:24:00,
2013-04-28 15:39:00,85.3,43.3,29.55,SSW,202,8.3,-999.0,23,-99.99,,,0.00,Acu-Link.com,2013-04-28 20:39:00,
2013-04-28 15:54:00,86.7,43.3,29.55,SW,225,11.4,-999.0,22,-99.99,,,0.00,Acu-Link.com,2013-04-28 20:54:00,
2013-04-28 16:09:00,84.6,42.7,29.54,SSW,202,10.4,-999.0,23,-99.99,,,0.00,Acu-Link.com,2013-04-28 21:09:00,
2013-04-28 16:25:00,84.2,41.2,29.53,SSW,202,11.9,-999.0,22,-99.99,,,0.00,Acu-Link.com,2013-04-28 21:25:00,
2013-04-28 16:40:00,84.9,41.8,29.54,WNW,292,8.3,-999.0,22,-99.99,,,0.00,Acu-Link.com,2013-04-28 21:40:00,
2013-04-28 16:55:00,79.5,47.9,29.56,NNW,337,18.6,-999.0,33,-99.99,,,0.00,Acu-Link.com,2013-04-28 21:55:00,
2013-04-28 17:10:00,79.5,47.9,29.57,West,270,16.1,-999.0,33,-99.99,,,0.00,Acu-Link.com,2013-04-28 22:10:00,
2013-04-28 17:25:00,78.8,46.4,29.57,WNW,292,21.7,-999.0,32,-99.99,,,0.00,Acu-Link.com,2013-04-28 22:25:00,
2013-04-28 17:40:00,76.8,47.8,29.58,NNE,22,8.9,-999.0,36,-99.99,,,0.00,Acu-Link.com,2013-04-28 22:40:00,
2013-04-28 17:55:00,75.7,42.9,29.59,NE,45,17.6,-999.0,31,-99.99,,,0.00,Acu-Link.com,2013-04-28 22:55:00,
2013-04-28 18:10:00,75.2,42.5,29.59,North,0,21.7,-999.0,31,-99.99,,,0.00,Acu-Link.com,2013-04-28 23:10:00,
2013-04-28 18:25:00,73.8,40.4,29.61,NE,45,16.1,-999.0,30,-99.99,,,0.00,Acu-Link.com,2013-04-28 23:25:00,
2013-04-28 18:40:00,73.6,43.5,29.60,WNW,292,24.8,-999.0,34,-99.99,,,0.00,Acu-Link.com,2013-04-28 23:40:00,
2013-04-28 18:56:00,71.6,44.6,29.61,NE,45,17.1,-999.0,38,-99.99,,,0.00,Acu-Link.com,2013-04-28 23:56:00,
2013-04-28 19:11:00,70.5,43.7,29.61,NNW,337,10.4,-999.0,38,-99.99,,,0.00,Acu-Link.com,2013-04-29 00:11:00,
2013-04-28 19:26:00,69.8,43.0,29.62,NNW,337,11.4,-999.0,38,-99.99,,,0.00,Acu-Link.com,2013-04-29 00:26:00,
2013-04-28 19:41:00,68.7,42.1,29.62,North,0,12.5,-999.0,38,-99.99,,,0.00,Acu-Link.com,2013-04-29 00:41:00,
2013-04-28 19:56:00,68.2,42.9,29.63,NNW,337,15.0,-999.0,40,-99.99,,,0.00,Acu-Link.com,2013-04-29 00:56:00,
2013-04-28 20:11:00,67.5,42.3,29.64,NNE,22,8.3,-999.0,40,-99.99,,,0.00,Acu-Link.com,2013-04-29 01:11:00,
2013-04-28 20:26:00,67.1,42.6,29.65,North,0,9.9,-999.0,41,-99.99,,,0.00,Acu-Link.com,2013-04-29 01:26:00,
2013-04-28 20:41:00,66.7,41.6,29.66,North,0,7.3,-999.0,40,-99.99,,,0.00,Acu-Link.com,2013-04-29 01:41:00,
2013-04-28 20:56:00,65.8,41.4,29.64,NNE,22,14.5,-999.0,41,-99.99,,,0.00,Acu-Link.com,2013-04-29 01:56:00,
2013-04-28 21:12:00,65.3,42.8,29.66,NE,45,12.5,-999.0,44,-99.99,,,0.00,Acu-Link.com,2013-04-29 02:12:00,
2013-04-28 21:27:00,64.2,43.5,29.66,East,90,6.8,-999.0,47,-99.99,,,0.00,Acu-Link.com,2013-04-29 02:27:00,
2013-04-28 21:42:00,63.9,44.4,29.67,North,0,5.3,-999.0,49,-99.99,,,0.00,Acu-Link.com,2013-04-29 02:42:00,
2013-04-28 21:57:00,63.1,44.7,29.66,NNE,22,4.2,-999.0,51,-99.99,,,0.00,Acu-Link.com,2013-04-29 02:57:00,
2013-04-28 22:12:00,63.0,45.1,29.68,West,270,4.7,-999.0,52,-99.99,,,0.00,Acu-Link.com,2013-04-29 03:12:00,
2013-04-28 22:27:00,62.4,45.0,29.68,NNW,337,6.3,-999.0,53,-99.99,,,0.00,Acu-Link.com,2013-04-29 03:27:00,
2013-04-28 22:42:00,61.7,45.8,29.68,North,0,9.4,-999.0,56,-99.99,,,0.00,Acu-Link.com,2013-04-29 03:42:00,
2013-04-28 22:58:00,60.6,46.2,29.69,NNW,337,13.5,-999.0,59,-99.99,,,0.00,Acu-Link.com,2013-04-29 03:58:00,
2013-04-28 23:13:00,58.3,46.6,29.71,NNW,337,13.5,-999.0,65,-99.99,,,0.00,Acu-Link.com,2013-04-29 04:13:00,
2013-04-28 23:28:00,56.8,45.2,29.72,NNW,337,9.4,-999.0,65,-99.99,,,0.00,Acu-Link.com,2013-04-29 04:28:00,
2013-04-28 23:43:00,55.6,44.4,29.72,NNW,337,14.0,-999.0,66,-99.99,,,0.00,Acu-Link.com,2013-04-29 04:43:00,
2013-04-28 23:58:00,55.0,44.2,29.71,NNE,22,10.9,-999.0,67,-99.99,,,0.00,Acu-Link.com,2013-04-29 04:58:00,